Location: Celina Division
(33.3022°N, 96.7580°W)
Time: 14:45:09
(UTC+00:00)

Cosmos 1812 - Pass Details

Date: 29 June 2022
Orbit: 508 x 515 km, 82.5° (Epoch: 14 August)

Event Time Altitude Azimuth Distance (km) Brightness Sun altitude
Rises 09:10:37 0° 336° (NNW) 2,633 6.7 -21.8°
Reaches altitude 10° 09:13:06 10° 321° (NW) 1,740 5.5 -21.5°
Enters shadow 09:14:26 17° 304° (NW) 1,369 4.8 -21.3°
